{"data":{"norad_id":23712,"epoch":"2026-05-25T03:15:33.100128Z","epoch_age_seconds":53403,"freshness":"FRESH","line1":"1 23712U 95060A   26145.13579977 -.00000155  00000+0  00000+0 0  9991","line2":"2 23712  14.0653   3.9257 0000877  88.0076  97.6806  1.00367170 32650","mean_motion":1.0036717,"eccentricity":8.77e-5,"inclination_deg":14.0653,"raan_deg":3.9257,"arg_perigee_deg":88.0076,"mean_anomaly_deg":97.6806,"bstar":0,"rev_number":3265,"period_min":1434.7320941698,"perigee_km":35756.180758693,"apogee_km":35763.571766219,"semimajor_km":42138.013262456,"source":"CELESTRAK","updated_at":"2026-05-25T13:38:13.806318Z"}}